Weather observations for the past three days for
Sierra Blanca Regional Airport
Metric (Imperial)
Date Time (mdt) Wind (kph) Vis. (km) Weather Sky Cond. Temperature (ºC) Relative Humidity Wind Chill (°C) Heat Index (°C) Pressure Precipitation (cm)
Air Dwpt 6 hour altimeter (cm) sea level (mb) 1 hr 3 hr 6 hr
Max. Min.
08 03:35 W 13 16.09 Fair CLR 9 -7 32% 7 76.45 0.0
08 03:15 NW 9 16.09 Fair CLR 10 -7 30% 9 76.45 0.0
08 02:55 W 11 16.09 Fair CLR 12 -7 26% 76.48 0.0
08 02:35 N 7 16.09 Fair CLR 12 -7 26% 76.48 0.0
08 02:15 W 7 16.09 Fair CLR 12 -6 28% 76.48 0.0
08 01:55 SW 7 16.09 Fair CLR 9 -5 37% 8 76.5 0.0
08 01:35 W 6 16.09 Fair CLR 11 -4 35% 76.53 0.0
08 01:15 W 7 16.09 Fair CLR 9 -5 37% 8 76.53 0.0
08 00:55 W 9 16.09 Fair CLR 10 -5 35% 9 76.53 0.0
08 00:35 NW 7 16.09 Fair CLR 10 -3 40% 9 76.53 0.0
08 00:15 W 7 16.09 Fair CLR 11 -3 38% 76.56 0.0
07 23:55 SW 7 16.09 NULL NULL 11 -2 41% 76.56 0.0
07 23:15 SW 7 16.09 NULL NULL 12 -1 41% 76.56 0.0
07 22:55 S 7 16.09 Fair CLR 10 -1 47% 9 76.56 0.0
07 22:35 S 6 0.00 NULL NULL 0 0 0% 76.56 0.0
07 22:15 Calm 0.00 NULL NULL 0 0 0% 76.56 0.0
07 21:55 S 9 0.00 NULL NULL 0 0 0% 76.53 0.0
07 21:35 SE 9 0.00 NULL NULL 0 0 0% 76.53 0.0
07 20:35 SE 13 16.09 NULL NULL 13 0 41% 76.5 0.0
07 20:15 S 11 16.09 NULL NULL 14 0 39% 76.5 0.0
07 19:55 SE 15 0.00 NULL NULL 0 0 0% 76.48 0.0
07 19:15 E 19 16.09 NULL NULL 17 -1 30% 76.45 0.0
07 18:55 SE 22 G 31 0.00 NULL NULL 0 0 0% 76.43 0.0
07 16:35 E 20 0.00 NULL NULL 21 -5 17% 76.43 0.0
07 15:55 S 11 16.09 NULL NULL 21 -12 10% 76.45 0.0
07 13:15 S 7 16.09 NULL NULL 19 -5 19% 76.61 0.0
07 12:55 N 11 16.09 Fair CLR 18 -5 21% 76.63 0.0
07 12:35 N 9 16.09 Fair CLR 19 -5 19% 76.66 0.0
07 12:15 SE 7 16.09 Fair CLR 17 -2 27% 76.66 0.0
07 11:55 NW 7 16.09 Fair CLR 17 -4 24% 76.68 0.0
07 11:35 W 15 16.09 Fair CLR 17 -4 24% 76.68 0.0
07 11:15 NE 7 16.09 Fair CLR 16 -3 27% 76.71 0.0
07 10:55 NW 13 16.09 Fair CLR 15 -3 29% 76.71 0.0
07 10:35 SE 6 16.09 Fair CLR 14 -2 33% 76.73 0.0
07 10:15 E 7 16.09 Fair CLR 13 -1 38% 76.76 0.0
07 09:55 S 7 16.09 Fair CLR 12 0 44% 76.76 0.0
07 09:35 SE 7 16.09 Fair CLR 11 0 47% 76.76 0.0
07 09:15 SE 9 16.09 Fair CLR 10 0 50% 9 76.78 0.0
07 08:55 E 6 16.09 Fair CLR 9 0 54% 76.78 0.0
07 08:15 Calm 16.09 Fair CLR 7 1 66% 76.81 0.0
07 07:55 Calm 16.09 Fair CLR 5 1 76% 76.81 0.0
07 07:35 Calm 16.09 Fair CLR 4 0 75% 76.81 0.0
07 07:15 Calm 16.09 Fair CLR 4 0 75% 76.81 0.0
07 06:55 Calm 16.09 Fair CLR 3 0 81% 76.78 0.0
07 06:35 Calm 16.09 Fair CLR 2 0 87% 76.78 0.0
07 06:15 Calm 16.09 Fair CLR 1 0 93% 76.78 0.0
07 05:55 Calm 16.09 Fair CLR 1 0 93% 76.78 0.0
07 05:35 SE 7 16.09 Fair CLR 2 0 87% 0 76.78 0.0
07 05:15 S 9 16.09 Fair CLR 2 -1 81% -0 76.81 0.0
07 04:55 S 15 16.09 Fair CLR 1 -1 87% -3 76.81 0.0
07 04:35 S 15 16.09 Fair CLR 1 -1 87% -3 76.81 0.0
07 04:15 S 15 16.09 Fair CLR 1 -1 87% -3 76.81 0.0
07 03:55 S 13 16.09 Fair CLR 2 -1 81% -1 76.81 0.0
07 03:35 S 13 16.09 Fair CLR 2 -1 81% -1 76.81 0.0
07 03:15 S 13 16.09 Fair CLR 2 0 87% -1 76.78 0.0
07 02:55 S 13 16.09 Fair CLR 2 0 87% -1 76.78 0.0
07 02:35 S 13 16.09 Fair CLR 2 -1 81% -1 76.81 0.0
07 02:15 S 9 16.09 Fair CLR 3 0 81% 1 76.78 0.0
07 01:55 S 11 16.09 Fair CLR 3 0 81% 0 76.78 0.0
07 01:35 S 13 16.09 Fair CLR 4 0 75% 1 76.78 0.0
07 01:15 S 13 16.09 Fair CLR 4 0 75% 1 76.78 0.0
07 00:55 S 11 16.09 Fair CLR 5 -1 66% 3 76.81 0.0
07 00:35 S 11 16.09 Fair CLR 6 -2 57% 4 76.78 0.0
07 00:15 S 15 16.09 Fair CLR 7 -3 49% 5 76.78 0.0
06 23:55 S 9 16.09 Fair CLR 7 -2 53% 5 76.76 0.0
06 23:35 S 15 16.09 Fair CLR 8 -2 50% 6 76.76 0.0
06 23:15 NW 7 16.09 Fair CLR 9 -2 46% 8 76.73 0.0
06 22:55 NW 15 16.09 A Few Clouds FEW095 10 -3 40% 8 76.71 0.0
06 22:35 N 19 G 26 16.09 Mostly Cloudy BKN095 10 -5 35% 8 76.68 0.0
06 22:15 N 22 16.09 Overcast OVC095 10 -9 26% 7 76.66 0.0
06 21:55 SW 11 16.09 Partly Cloudy SCT095 10 -11 22% 9 76.61 0.0
06 21:35 SW 9 16.09 Fair CLR 12 -12 18% 76.58 0.0
06 21:15 SW 17 16.09 NULL NULL 13 -12 16% 76.56 0.0
06 20:55 SW 19 16.09 NULL NULL 13 -11 18% 76.53 0.0
06 20:15 SW 15 16.09 NULL NULL 13 -11 18% 76.5 0.0
06 19:55 SW 15 16.09 NULL NULL 14 -11 17% 76.48 0.0
06 19:35 W 15 16.09 NULL NULL 15 -12 14% 76.45 0.0
06 19:15 SW 17 16.09 NULL NULL 15 -11 16% 76.43 0.0
06 18:15 W 24 16.09 NULL NULL 17 -12 13% 76.38 0.0
06 17:55 W 19 G 30 16.09 NULL NULL 17 -11 14% 76.38 0.0
06 17:35 W 35 G 43 16.09 Fair and Breezy CLR 17 -12 13% 76.35 0.0
06 17:15 SW 19 G 35 16.09 NULL NULL 17 -12 13% 76.35 0.0
06 16:55 W 28 G 52 16.09 Fair CLR 18 -12 12% 76.35 0.0
06 16:35 W 26 G 41 0.00 NULL NULL 17 -12 13% 76.33 0.0
06 16:15 W 30 G 59 16.09 Fair CLR 18 -12 12% 76.33 0.0
06 15:55 W 31 G 44 16.09 Fair CLR 18 -12 12% 76.33 0.0
06 15:35 W 31 G 41 16.09 Fair CLR 18 -13 11% 76.33 0.0
06 15:15 W 30 G 44 16.09 Fair CLR 18 -12 12% 76.35 0.0
06 14:55 SW 37 16.09 Fair and Breezy CLR 18 -10 14% 76.33 0.0
06 14:35 W 31 G 41 16.09 Fair CLR 17 -12 13% 76.35 0.0
06 14:15 W 39 G 52 16.09 Fair and Breezy CLR 17 -12 13% 76.35 0.0
06 13:55 W 37 G 44 16.09 Fair and Breezy CLR 17 -11 14% 76.35 0.0
06 13:35 W 24 G 43 16.09 Fair CLR 16 -12 13% 76.38 0.0
06 13:15 W 33 G 44 16.09 Fair and Breezy CLR 16 -12 13% 76.38 0.0
06 12:55 W 20 G 44 16.09 Fair CLR 16 -10 16% 76.4 0.0
06 12:35 W 28 G 39 16.09 Fair CLR 15 -10 17% 76.4 0.0
06 12:15 W 22 G 31 16.09 Fair CLR 15 -8 20% 76.43 0.0
06 11:55 NW 26 G 39 16.09 Fair CLR 15 -9 18% 76.43 0.0
06 11:35 W 35 G 44 16.09 Fair and Breezy CLR 14 -9 20% 76.43 0.0
06 11:15 W 28 G 33 16.09 Fair CLR 14 -9 20% 76.43 0.0
06 10:55 NW 11 G 37 16.09 Fair CLR 14 -7 23% 76.43 0.0
06 10:35 NW 19 G 35 16.09 Fair CLR 13 -8 23% 76.43 0.0
06 10:15 W 30 G 37 16.09 Fair CLR 13 -7 24% 76.4 0.0
06 09:55 W 26 G 39 16.09 Fair CLR 12 -7 26% 76.4 0.0
06 09:35 W 26 G 37 16.09 Fair CLR 12 -6 28% 76.4 0.0
06 09:15 NW 26 G 35 16.09 Fair CLR 12 -6 28% 76.4 0.0
06 08:55 NW 26 G 35 16.09 Fair CLR 12 -6 28% 76.4 0.0
06 08:35 NW 20 G 31 16.09 Fair CLR 11 -4 35% 76.4 0.0
06 08:15 W 19 16.09 Fair CLR 11 -4 35% 76.4 0.0
06 07:55 NW 15 G 26 16.09 Fair CLR 10 -2 43% 8 76.4 0.0
06 07:35 W 20 16.09 Fair CLR 10 -2 43% 8 76.4 0.0
06 07:15 W 13 16.09 Fair CLR 9 -2 46% 7 76.38 0.0
06 06:55 W 9 16.09 Fair CLR 7 -2 53% 5 76.35 0.0
06 06:35 W 9 16.09 Fair CLR 7 -2 53% 5 76.35 0.0
06 06:15 W 13 16.09 Fair CLR 7 -2 53% 5 76.33 0.0
06 05:55 NW 11 16.09 Fair CLR 7 -2 53% 5 76.33 0.0
06 04:55 NW 9 16.09 Fair CLR 8 -1 53% 7 76.3 0.0
06 04:15 W 15 16.09 Fair CLR 9 -1 50% 7 76.28 0.0
06 03:55 W 20 G 31 16.09 Fair CLR 9 -1 50% 6 76.28 0.0
06 03:15 W 20 16.09 Fair CLR 9 -2 46% 6 76.25 0.0
06 02:55 NW 15 16.09 Fair CLR 10 -2 43% 8 76.25 0.0
06 02:35 W 22 G 33 16.09 Fair CLR 10 -2 43% 7 76.25 0.0
06 02:15 W 20 G 33 16.09 Fair CLR 11 -3 38% 76.23 0.0
06 01:55 W 28 G 41 16.09 Fair CLR 12 -3 35% 76.23 0.0
06 01:35 W 28 G 39 16.09 Fair CLR 12 -3 35% 76.23 0.0
06 01:15 W 31 G 44 16.09 Fair CLR 12 -4 33% 76.2 0.0
06 00:55 W 43 G 50 16.09 Fair and Windy CLR 12 -4 33% 76.2 0.0
06 00:35 W 31 G 52 16.09 Fair CLR 12 -4 33% 76.23 0.0
05 23:55 W 28 G 39 16.09 Fair CLR 13 -5 28% 76.23 0.0
05 23:35 W 26 G 44 16.09 Fair CLR 13 -5 28% 76.2 0.0
05 23:15 W 30 16.09 Fair CLR 12 -5 30% 76.2 0.0
05 22:55 SW 28 G 41 16.09 Fair CLR 13 -4 31% 76.2 0.0
05 21:35 SW 28 G 37 16.09 Fair CLR 13 -3 33% 76.15 0.0
05 21:15 SW 30 G 41 16.09 NULL NULL 14 -4 29% 76.15 0.0
05 20:55 SW 35 G 46 16.09 Fair and Breezy CLR 14 -4 29% 76.12 0.0
05 20:35 SW 35 G 48 16.09 Fair and Breezy CLR 14 -4 29% 76.1 0.0
05 20:15 SW 35 G 56 16.09 Breezy NULL 14 -4 29% 76.07 0.0
05 19:55 SW 43 G 52 16.09 Windy NULL 14 -4 29% 76.07 0.0
05 19:15 W 28 G 48 16.09 NULL NULL 14 -3 31% 76.02 0.0
05 18:55 W 52 G 63 16.09 Windy NULL 15 -3 29% 76 0.0
05 18:35 SW 44 G 59 16.09 Windy NULL 15 -2 31% 76.02 0.0
05 18:15 SW 48 G 59 16.09 Windy NULL 15 -2 31% 76.02 0.0
05 17:35 W 35 G 54 0.00 Breezy NULL 0 0 0% 76 0.0
05 17:15 SW 56 G 70 0.00 Windy NULL 15 1 39% 76 0.0
05 16:35 SW 50 G 72 16.09 Windy NULL 16 1 36% 76 0.0
05 16:15 W 46 G 63 16.09 Windy NULL 17 0 32% 76.02 0.0
05 15:55 SW 54 G 63 16.09 Windy NULL 17 0 32% 76.02 0.0
05 15:35 W 48 G 65 16.09 Windy NULL 17 1 34% 76.05 0.0
05 14:35 SW 50 G 69 16.09 Fair and Windy CLR 17 1 34% 76.07 0.0
05 14:15 SW 50 G 65 16.09 Windy NULL 16 1 36% 76.1 0.0
05 13:55 SW 57 G 70 16.09 Fair and Windy CLR 17 2 37% 76.12 0.0
05 13:35 SW 50 G 61 16.09 Fair and Windy CLR 17 2 37% 76.12 0.0
05 13:15 SW 46 G 63 16.09 Fair and Windy CLR 16 2 39% 76.12 0.0
05 12:55 W 44 G 61 16.09 Fair and Windy CLR 17 1 34% 76.15 0.0
05 12:35 W 50 G 69 16.09 Fair and Windy CLR 17 1 34% 76.15 0.0
05 12:15 W 44 G 65 16.09 Fair and Windy CLR 16 0 34% 76.15 0.0
05 11:55 W 46 G 69 16.09 Fair and Windy CLR 17 0 32% 76.15 0.0
05 11:35 SW 37 G 61 16.09 Fair and Breezy CLR 16 0 34% 76.17 0.0
05 11:15 W 44 G 59 16.09 Fair and Windy CLR 17 0 32% 76.15 0.0
05 10:55 SW 41 G 50 16.09 Fair and Breezy CLR 17 0 32% 76.15 0.0
05 10:35 W 33 G 46 16.09 Fair and Breezy CLR 16 0 34% 76.17 0.0
05 10:15 SW 35 G 48 16.09 Fair and Breezy CLR 16 0 34% 76.15 0.0
05 09:55 SW 35 G 54 16.09 Fair and Breezy CLR 15 -1 34% 76.15 0.0
05 09:35 W 28 G 48 16.09 Fair CLR 15 -2 31% 76.12 0.0
05 09:15 W 33 G 52 16.09 Fair and Breezy CLR 15 -2 31% 76.15 0.0
05 08:55 W 31 G 43 16.09 Fair CLR 14 -1 36% 76.15 0.0
05 08:35 W 43 G 54 16.09 Fair and Windy CLR 13 0 41% 76.12 0.0
05 08:15 SW 52 G 72 16.09 Fair and Windy CLR 13 0 41% 76.15 0.0
05 07:55 SW 46 G 61 16.09 Fair and Windy CLR 15 -2 31% 76.2 0.0
05 07:15 W 20 G 31 16.09 Partly Cloudy SCT120 15 -3 29% 76.15 0.0
05 06:35 NW 20 G 26 16.09 Fair CLR 13 -2 36% 76.1 0.0
05 06:15 NW 22 G 35 16.09 Fair CLR 13 -2 36% 76.1 0.0
05 05:55 NW 22 G 35 16.09 Fair CLR 14 -2 33% 76.07 0.0
05 05:35 NW 24 G 43 16.09 Fair CLR 14 -2 33% 76.07 0.0
05 05:15 NW 22 G 43 16.09 Fair CLR 14 -2 33% 76.07 0.0
05 04:55 W 26 G 54 16.09 Fair CLR 14 -2 33% 76.07 0.0
05 04:35 W 22 G 43 16.09 Fair CLR 14 -3 31% 76.05 0.0
05 04:15 W 28 G 48 16.09 Fair CLR 14 -3 31% 76.05 0.0
Date Time (mdt) Wind (kph) Vis. (km) Weather Sky Cond. Air Dwpt Max. Min. Relative Humidity Wind Chill (°C) Heat Index (°C) altimeter (cm) sea level (mb) 1 hr 3 hr 6 hr
6 hour
Temperature (ºC) Pressure Precipitation (cm)